TimeCEST,TemperatureF,Dew PointF,Humidity,Sea Level PressureIn,VisibilityMPH,Wind Direction,Wind SpeedMPH,Gust SpeedMPH,PrecipitationIn,Events,Conditions,WindDirDegrees,DateUTC
12:00 AM,68.0,59.0,73,30.09,6.2,ENE,3.5,-,N/A,,Partly Cloudy,70,2013-06-30 22:00:00
12:30 AM,68.0,59.0,73,30.09,6.2,East,2.3,-,N/A,,Partly Cloudy,80,2013-06-30 22:30:00
1:00 AM,68.0,57.2,68,30.09,6.2,East,1.2,-,N/A,,Partly Cloudy,90,2013-06-30 23:00:00
1:30 AM,66.2,57.2,73,30.09,6.2,Calm,Calm,-,N/A,,Partly Cloudy,0,2013-06-30 23:30:00
2:00 AM,64,56,70,30.10,11,Calm,Calm,,,,Scattered Clouds,,2013-07-01 00:00:00
2:00 AM,64.4,57.2,77,30.09,6.2,Calm,Calm,-,N/A,,Partly Cloudy,0,2013-07-01 00:00:00
2:30 AM,64.4,57.2,77,30.06,6.2,North,1.2,-,N/A,,Partly Cloudy,360,2013-07-01 00:30:00
3:00 AM,64.4,57.2,77,30.06,6.2,ENE,3.5,-,N/A,,Partly Cloudy,70,2013-07-01 01:00:00
3:30 AM,62.6,55.4,77,30.04,6.2,East,1.2,-,N/A,,Partly Cloudy,80,2013-07-01 01:30:00
4:00 AM,62.6,55.4,77,30.04,6.2,ENE,1.2,-,N/A,,Partly Cloudy,60,2013-07-01 02:00:00
4:30 AM,60.8,55.4,82,30.04,6.2,Calm,Calm,-,N/A,,Partly Cloudy,0,2013-07-01 02:30:00
5:00 AM,60.8,55.4,82,30.04,-9999.0,ENE,2.3,-,N/A,,Clear,60,2013-07-01 03:00:00
5:30 AM,60.8,55.4,82,30.04,-9999.0,NE,2.3,-,N/A,,Clear,50,2013-07-01 03:30:00
6:00 AM,60.8,55.4,82,30.04,-9999.0,ENE,1.2,-,N/A,,Clear,60,2013-07-01 04:00:00
6:30 AM,59.0,55.4,88,30.04,-9999.0,ENE,3.5,-,N/A,,Clear,60,2013-07-01 04:30:00
7:00 AM,60.8,55.4,82,30.04,-9999.0,ENE,3.5,-,N/A,,Clear,60,2013-07-01 05:00:00
7:30 AM,64.4,59.0,83,30.04,-9999.0,Calm,Calm,-,N/A,,Clear,0,2013-07-01 05:30:00
8:00 AM,67,59,68,30.06,19,ENE,2.3,,,,,60,2013-07-01 06:00:00
8:00 AM,66.2,59.0,78,30.06,-9999.0,Variable,2.3,-,N/A,,Clear,0,2013-07-01 06:00:00
8:30 AM,69.8,60.8,73,30.06,6.2,Calm,Calm,-,N/A,,Partly Cloudy,0,2013-07-01 06:30:00
9:00 AM,73.4,60.8,65,30.06,6.2,Variable,1.2,-,N/A,,Partly Cloudy,0,2013-07-01 07:00:00
9:30 AM,75.2,60.8,61,30.06,6.2,NE,3.5,-,N/A,,Partly Cloudy,40,2013-07-01 07:30:00
10:00 AM,77.0,60.8,57,30.06,6.2,NNE,5.8,-,N/A,,Partly Cloudy,30,2013-07-01 08:00:00
10:30 AM,78.8,59.0,51,30.04,6.2,NE,8.1,-,N/A,,Partly Cloudy,40,2013-07-01 08:30:00
11:00 AM,80.6,59.0,48,30.04,6.2,NE,5.8,-,N/A,,Partly Cloudy,50,2013-07-01 09:00:00
11:30 AM,82.4,55.4,39,30.04,6.2,NE,5.8,-,N/A,,Partly Cloudy,50,2013-07-01 09:30:00
12:00 PM,84.2,57.2,40,30.04,6.2,ENE,5.8,-,N/A,,Partly Cloudy,70,2013-07-01 10:00:00
12:30 PM,86.0,59.0,40,30.04,6.2,East,6.9,-,N/A,,Partly Cloudy,90,2013-07-01 10:30:00
1:00 PM,84.2,60.8,45,30.04,6.2,SSW,4.6,-,N/A,,Partly Cloudy,210,2013-07-01 11:00:00
1:30 PM,80.6,64.4,58,30.04,6.2,SSW,16.1,-,N/A,,Partly Cloudy,210,2013-07-01 11:30:00
2:00 PM,79,63,48,30.04,19,SSW,17.3,,,,Scattered Clouds,210,2013-07-01 12:00:00
2:00 PM,78.8,64.4,61,30.04,6.2,SW,16.1,-,N/A,,Partly Cloudy,220,2013-07-01 12:00:00
2:30 PM,80.6,62.6,54,30.04,6.2,SW,16.1,-,N/A,,Partly Cloudy,220,2013-07-01 12:30:00
3:00 PM,78.8,64.4,61,30.04,6.2,SW,16.1,-,N/A,,Partly Cloudy,220,2013-07-01 13:00:00
3:30 PM,78.8,64.4,61,30.04,6.2,SW,15.0,-,N/A,,Partly Cloudy,230,2013-07-01 13:30:00
4:00 PM,78.8,64.4,61,30.04,6.2,SW,15.0,-,N/A,,Partly Cloudy,220,2013-07-01 14:00:00
4:30 PM,78.8,64.4,61,30.01,6.2,SW,12.7,-,N/A,,Partly Cloudy,220,2013-07-01 14:30:00
5:00 PM,78.8,64.4,61,30.01,6.2,SW,11.5,-,N/A,,Partly Cloudy,220,2013-07-01 15:00:00
5:30 PM,78.8,64.4,61,30.01,6.2,SW,11.5,-,N/A,,Partly Cloudy,220,2013-07-01 15:30:00
6:00 PM,78.8,64.4,61,30.01,6.2,SW,9.2,-,N/A,,Partly Cloudy,220,2013-07-01 16:00:00
6:30 PM,78.8,64.4,61,30.01,6.2,SW,8.1,-,N/A,,Partly Cloudy,220,2013-07-01 16:30:00
7:00 PM,78.8,64.4,61,29.98,6.2,WSW,6.9,-,N/A,,Partly Cloudy,240,2013-07-01 17:00:00
7:30 PM,77.0,64.4,65,29.98,6.2,SW,5.8,-,N/A,,Partly Cloudy,230,2013-07-01 17:30:00
8:00 PM,77,65,58,29.99,19,WSW,5.8,,,,Scattered Clouds,250,2013-07-01 18:00:00
8:00 PM,77.0,66.2,69,29.98,6.2,WSW,4.6,-,N/A,,Partly Cloudy,240,2013-07-01 18:00:00
8:30 PM,77.0,66.2,69,29.98,6.2,SW,4.6,-,N/A,,Partly Cloudy,230,2013-07-01 18:30:00
9:00 PM,75.2,66.2,73,30.01,6.2,SW,3.5,-,N/A,,Partly Cloudy,230,2013-07-01 19:00:00
9:30 PM,73.4,66.2,78,30.01,6.2,WSW,4.6,-,N/A,,Partly Cloudy,240,2013-07-01 19:30:00
10:00 PM,73.4,66.2,78,30.01,6.2,WSW,6.9,-,N/A,,Partly Cloudy,240,2013-07-01 20:00:00
10:30 PM,73.4,68.0,83,30.04,6.2,Variable,1.2,-,N/A,,Partly Cloudy,0,2013-07-01 20:30:00
11:00 PM,71.6,66.2,83,30.04,-9999.0,Variable,1.2,-,N/A,,Clear,0,2013-07-01 21:00:00
11:30 PM,71.6,64.4,78,30.04,6.2,NE,6.9,-,N/A,,Partly Cloudy,40,2013-07-01 21:30:00